TimeMST,TemperatureF,Dew PointF,Humidity,Sea Level PressureIn,VisibilityMPH,Wind Direction,Wind SpeedMPH,Gust SpeedMPH,PrecipitationIn,Events,Conditions,WindDirDegrees,DateUTC
12:51 AM,52.0,25.0,35,30.10,10.0,Calm,Calm,-,N/A,,Clear,0,2013-01-19 07:51:00
1:51 AM,51.1,25.0,36,30.11,10.0,Calm,Calm,-,N/A,,Clear,0,2013-01-19 08:51:00
2:51 AM,46.9,26.1,44,30.11,10.0,Calm,Calm,-,N/A,,Clear,0,2013-01-19 09:51:00
3:51 AM,46.9,26.1,44,30.12,10.0,Calm,Calm,-,N/A,,Clear,0,2013-01-19 10:51:00
4:51 AM,45.0,27.0,49,30.13,10.0,South,3.5,-,N/A,,Clear,170,2013-01-19 11:51:00
5:51 AM,48.9,24.1,38,30.13,10.0,Calm,Calm,-,N/A,,Clear,0,2013-01-19 12:51:00
6:51 AM,48.9,26.1,41,30.15,10.0,Calm,Calm,-,N/A,,Partly Cloudy,0,2013-01-19 13:51:00
7:51 AM,45.0,26.1,48,30.18,10.0,Calm,Calm,-,N/A,,Partly Cloudy,0,2013-01-19 14:51:00
8:51 AM,50.0,26.1,39,30.20,10.0,Calm,Calm,-,N/A,,Partly Cloudy,0,2013-01-19 15:51:00
9:51 AM,55.9,25.0,30,30.22,10.0,Calm,Calm,-,N/A,,Clear,0,2013-01-19 16:51:00
10:51 AM,64.0,21.0,19,30.21,10.0,ENE,9.2,-,N/A,,Clear,70,2013-01-19 17:51:00
11:51 AM,66.0,21.9,19,30.18,10.0,NNW,4.6,-,N/A,,Partly Cloudy,340,2013-01-19 18:51:00
12:51 PM,70.0,21.9,16,30.14,10.0,Variable,4.6,-,N/A,,Partly Cloudy,0,2013-01-19 19:51:00
1:51 PM,72.0,21.0,15,30.10,10.0,NE,4.6,-,N/A,,Partly Cloudy,50,2013-01-19 20:51:00
2:51 PM,73.0,19.9,14,30.09,10.0,Calm,Calm,-,N/A,,Partly Cloudy,0,2013-01-19 21:51:00
3:51 PM,73.9,19.9,13,30.08,10.0,Calm,Calm,-,N/A,,Partly Cloudy,0,2013-01-19 22:51:00
4:51 PM,73.9,19.9,13,30.08,10.0,WNW,4.6,-,N/A,,Partly Cloudy,290,2013-01-19 23:51:00
5:51 PM,71.1,21.0,15,30.07,10.0,West,4.6,-,N/A,,Partly Cloudy,260,2013-01-20 00:51:00
6:51 PM,66.9,21.0,17,30.09,10.0,West,4.6,-,N/A,,Partly Cloudy,270,2013-01-20 01:51:00
7:51 PM,62.1,23.0,22,30.10,10.0,Calm,Calm,-,N/A,,Partly Cloudy,0,2013-01-20 02:51:00
8:51 PM,59.0,23.0,25,30.11,10.0,Calm,Calm,-,N/A,,Clear,0,2013-01-20 03:51:00
9:51 PM,57.0,25.0,29,30.11,10.0,Calm,Calm,-,N/A,,Clear,0,2013-01-20 04:51:00
10:51 PM,55.0,25.0,31,30.12,10.0,SSW,3.5,-,N/A,,Clear,210,2013-01-20 05:51:00
11:51 PM,55.0,25.0,31,30.11,10.0,Calm,Calm,-,N/A,,Clear,0,2013-01-20 06:51:00